User: anonymous
Location: Vancouver
(49.2500°N, 123.1330°W)
Time: 07:02:18
(UTC-07:00)
Language:

H-2A R/B - Orbit

View from above orbital plane
View from above orbital plane
View from above satellite
View from above satellite

Ground track
Ground track

The orbit data is extracted from the following two-line orbital elements,

1 27601U 02056E   14244.36226002  .00000088  00000-0  47520-4 0  1692
2 27601 098.4789 325.2504 0073530 074.7048 324.6452 14.31403091611899
Epoch (UTC): 01 September 2014 08:41:39
Eccentricity: 0.0073530
inclination: 98.4789°
perigee height: 734 km
apogee height: 840 km
right ascension of ascending node: 325.2504°
argument of perigee: 74.7048°
revolutions per day: 14.31403091
mean anomaly at epoch: 324.6452°
orbit number at epoch: 61189

The dashed part of the orbit path shows where the satellite is in the earth's shadow,  

DLR